Home > Weather > Sapporo > Past weeks

Flag for Japan Weather for the Past 2 Weeks in Sapporo, Japan

Now
22 °F

Cold.


Feels Like: 14 °F
Forecast: 21 / 29 °F
Wind: 6 mph from Northwest

Location: Sapporo

Current Time: Feb 6, 2016 at 9:12:21 PM

Latest Report: Feb 6, 2016 at 8:00 PM


Visibility: N/A

Pressure: 29.96 "Hg

Humidity: 48%

Dew point: 5 °F

Location of SapporoLocation

Historic Weather in Sapporo — Graph

°F

Sapporo Temperature Yesterday

Maximum temperature yesterday: 31 °F (at 12:00 AM)
Minimum temperature yesterday: 23 °F (at 11:00 PM)
Average temperature yesterday: 28 °F

High & Low Weather Summary for the Past Weeks

 TemperatureHumidityPressure
High36 °F (Jan 26, 2:00 PM)91% (Jan 27, 4:00 AM)30.33 "Hg (Jan 27, 4:00 AM)
Low13 °F (Jan 25, 6:00 AM)35% (Feb 1, 11:00 AM)29.55 "Hg (Jan 24, 3:00 PM)
Average25 °F63%30.01 "Hg
* Reported Jan 22 7:00 PM — Feb 6 7:00 PM, Sapporo, Weather by CustomWeather, © 2016

Note: Actual official high and low records may vary slightly from our data, if they occured in-between our weather recording intervals... More about our weather records

Advertising

Sapporo Weather History for the Previous 24 Hours

 ConditionsComfort  
Time TempWeatherWind HumidityBarometerVisibility
7:00 PM
Sat, Feb 6
22 °FCold.8 mph44%29.96 "HgN/A
6:00 PM23 °FPassing clouds.6 mph57%29.95 "Hg9 mi
5:00 PM23 °FCold.6 mph64%29.93 "HgN/A
4:00 PM24 °FCold.6 mph61%29.91 "HgN/A
3:00 PM26 °FScattered clouds.8 mph60%29.89 "Hg6 mi
2:00 PM28 °FChilly.3 mph58%29.88 "HgN/A
1:00 PM28 °FChilly.5 mph53%29.88 "HgN/A
12:00 PM26 °FSnow flurries. Overcast.2 mph62%29.89 "Hg3 mi
5:00 AM21 °FCold.5 mph74%29.89 "HgN/A
4:00 AM22 °FCold.3 mph72%29.89 "HgN/A
3:00 AM23 °FOvercast.3 mph68%29.91 "Hg6 mi
2:00 AM24 °FCold.2 mph65%29.93 "HgN/A
1:00 AM23 °FCold.3 mph61%29.94 "HgN/A
12:00 AM23 °FCold.2 mph65%29.95 "HgN/A
11:00 PM
Fri, Feb 5
23 °FCold.3 mph62%29.95 "HgN/A
10:00 PM24 °FCold.2 mph60%29.95 "HgN/A
9:00 PM26 °FPassing clouds.7 mph56%29.95 "Hg6 mi
Weather by CustomWeather, © 2016

See weather overviewHow to use our weather pages